Torna al catalogo

ORBCOMM FM 27

AttivoComunicazioniLEO
NORAD 25481·PAYLOAD·🇺🇸 United States

Lanciato Sep 23, 1998 da Cape Canaveral Space Force Station

Loading…

Prossimi Passaggi (prossime 24 ore)

TLE

AggiornatoSource: Space-Track

Epoca: Sep 14, 2026, 09:15 UTC

1 25481U 98053G   26257.38592725  .00000572  00000-0  22822-3 0  9991
2 25481  45.0046 271.6403 0002921 284.2746  75.7778 14.39275341463082

Traccia ORBCOMM FM 27 in tempo reale con AllMySat

Download on the App Store